Location: Asheville, NC
(35.6000°N, 82.5500°W)
Time: 13:46:45
(UTC-04:00)

Vanguard 3 - Pass Details

Date: 11 March 2018
Orbit: 508 x 3264 km, 33.3° (Epoch: 18 June)

Event Time Altitude Azimuth Distance (km) Brightness Sun altitude
Rises 12:17:32 0° 260° (W) 7,062 11.8 46.3°
Reaches altitude 10° 12:22:39 10° 260° (W) 5,821 11.5 46.8°
Maximum altitude 12:39:29 80° 177° (S) 2,087 10.4 48.4°
Drops below altitude 10° 12:48:57 10° 92° (E) 3,485 10.7 49.1°
Sets 12:51:16 0° 91° (E) 4,181 11.0 49.2°
